Weather History for DeKalb, IL

Change the Weather History Date:

Wednesday, February 6, 2013

  Actual Average (KARR) Record (KARR)
Temperature  
Mean Temperature 23 °F 22 °F  
Max Temperature 35 °F 31 °F 46 °F (2005)
Min Temperature 11 °F 14 °F -14 °F (2014)
Degree Days  
Heating Degree Days 42 43  
Month to date heating degree days 260  
Since 1 July heating degree days 4277  
Cooling Degree Days 0 0  
Month to date cooling degree days 0  
Year to date cooling degree days 0  
Moisture  
Dew Point 21 °F    
Average Humidity 83    
Maximum Humidity 89    
Minimum Humidity 74    
Precipitation  
Precipitation 0.00 in 0.05 in 0.27 in (2008)
Month to date precipitation 0.25  
Year to date precipitation 1.72  
Sea Level Pressure  
Sea Level Pressure 30.13 in    
Wind  
Wind Speed 8 mph (SE)    
Max Wind Speed 22 mph    
Max Gust Speed 28 mph    
Visibility 8 miles    
Events      
T = Trace of Precipitation, MM = Missing Value Source: NWS Daily Summary

Daily Weather History Graph

Daily Weather History Graph

Search for Another Location

Airport:

Trip Planner

Search our weather history database for the weather conditions in past years. The results will help you decide how hot, cold, wet, or windy it might be!

Date:

Astronomy

Feb. 06, 2013 Rise Set
Actual Time 7:01 AM CST 5:16 PM CST
Civil Twilight 6:32 AM CST 5:45 PM CST
Nautical Twilight 5:59 AM CST 6:18 PM CST
Astronomical Twilight 5:26 AM CST 6:51 PM CST
Moon 3:47 AM CST (2/6) 1:33 PM CST (2/6)
Length of Visible Light 11h 13m
Length of Day
10h 15m
Waning Crescent, 17% of the Moon is Illuminated
Feb 6
Waning Crescent
Feb 10
New
Feb 17
First Quarter
Feb 25
Full
Mar 4
Last Quarter

Hourly Weather History & Observations

Time (CST) Temp. Windchill Dew Point Humidity Pressure Visibility Wind Dir Wind Speed Gust Speed Precip Events Conditions
12:15 AM 26.2 °F 18.6 °F 20.8 °F 80% 30.08 in 10.0 mi North 6.9 mph - N/A   Overcast
12:35 AM 25.5 °F 17.8 °F 20.1 °F 80% 30.09 in 10.0 mi North 6.9 mph - N/A   Overcast
12:55 AM 24.8 °F 16.1 °F 19.4 °F 80% 30.10 in 10.0 mi North 8.1 mph - N/A   Overcast
1:15 AM 23.7 °F 13.3 °F 18.5 °F 80% 30.09 in 10.0 mi NNE 10.4 mph - N/A   Overcast
1:35 AM 20.8 °F 9.7 °F 15.8 °F 81% 30.10 in 10.0 mi NNE 10.4 mph - N/A   Mostly Cloudy
1:55 AM 20.5 °F 10.8 °F 15.6 °F 81% 30.11 in 10.0 mi North 8.1 mph - N/A   Clear
2:15 AM 18.0 °F 9.8 °F 12.9 °F 81% 30.11 in 10.0 mi NNE 5.8 mph - N/A   Clear
2:35 AM 18.3 °F 9.1 °F 13.1 °F 80% 30.12 in 10.0 mi NE 6.9 mph - N/A   Clear
2:55 AM 14.9 °F 5.0 °F 11.1 °F 85% 30.11 in 10.0 mi NE 6.9 mph - N/A   Clear
3:15 AM 15.8 °F 10.2 °F 12.2 °F 86% 30.13 in 10.0 mi NE 3.5 mph - N/A   Clear
3:35 AM 16.7 °F - 12.9 °F 85% 30.13 in 10.0 mi Calm Calm - N/A   Clear
3:55 AM 16.7 °F 11.2 °F 12.9 °F 85% 30.14 in 10.0 mi ENE 3.5 mph - N/A   Clear
4:15 AM 15.3 °F 9.6 °F 11.8 °F 86% 30.14 in 10.0 mi East 3.5 mph - N/A   Clear
4:35 AM 14.5 °F 7.1 °F 11.3 °F 87% 30.14 in 10.0 mi East 4.6 mph - N/A   Clear
4:55 AM 12.6 °F 4.8 °F 9.7 °F 88% 30.15 in 7.0 mi ESE 4.6 mph - N/A   Clear
5:15 AM 14.9 °F 5.0 °F 12.2 °F 89% 30.15 in 10.0 mi ESE 6.9 mph - N/A   Clear
5:35 AM 11.8 °F 3.9 °F 9.0 °F 88% 30.16 in 7.0 mi ESE 4.6 mph - N/A   Clear
5:55 AM 13.8 °F 6.2 °F 10.9 °F 88% 30.16 in 7.0 mi ESE 4.6 mph - N/A   Clear
6:15 AM 13.5 °F 4.4 °F 10.2 °F 87% 30.15 in 7.0 mi ESE 5.8 mph - N/A   Clear
6:35 AM 12.7 °F 5.0 °F 9.7 °F 88% 30.16 in 10.0 mi SE 4.6 mph - N/A   Clear
6:55 AM 14.0 °F 6.5 °F 10.4 °F 86% 30.16 in 7.0 mi SE 4.6 mph - N/A   Clear
7:15 AM 12.0 °F 2.7 °F 8.6 °F 86% 30.16 in 7.0 mi SE 5.8 mph - N/A   Clear
7:35 AM 14.0 °F 5.1 °F 10.9 °F 88% 30.16 in 7.0 mi ESE 5.8 mph - N/A   Clear
7:55 AM 15.8 °F 8.6 °F 12.0 °F 85% 30.18 in 10.0 mi SE 4.6 mph - N/A   Clear
8:15 AM 14.0 °F 8.2 °F 10.8 °F 87% 30.19 in 7.0 mi SE 3.5 mph - N/A   Clear
8:35 AM 14.2 °F 6.7 °F 10.6 °F 86% 30.19 in 7.0 mi SSE 4.6 mph - N/A   Clear
8:55 AM 18.5 °F 10.4 °F 13.8 °F 82% 30.19 in 10.0 mi SE 5.8 mph - N/A   Clear
9:15 AM 21.2 °F 13.6 °F 14.7 °F 76% 30.19 in 10.0 mi ESE 5.8 mph - N/A   Clear
9:35 AM 21.4 °F 12.8 °F 14.7 °F 75% 30.19 in 10.0 mi SE 6.9 mph - N/A   Clear
9:55 AM 22.6 °F 14.3 °F 15.4 °F 74% 30.19 in 10.0 mi SE 6.9 mph - N/A   Clear
10:15 AM 24.8 °F 16.1 °F 17.6 °F 74% 30.19 in 10.0 mi SE 8.1 mph - N/A   Clear
10:35 AM 23.9 °F 15.8 °F 17.4 °F 76% 30.20 in 10.0 mi SE 6.9 mph - N/A   Clear
10:55 AM 24.8 °F 16.9 °F 17.6 °F 74% 30.20 in 7.0 mi SSE 6.9 mph - N/A   Clear
11:15 AM 25.7 °F 19.0 °F 19.2 °F 76% 30.20 in 7.0 mi SSE 5.8 mph - N/A   Clear
11:35 AM 27.0 °F 19.5 °F 20.3 °F 76% 30.20 in 7.0 mi SSE 6.9 mph - N/A   Clear
11:55 AM 27.9 °F 19.8 °F 21.2 °F 76% 30.19 in 7.0 mi SSE 8.1 mph - N/A   Clear
12:15 PM 28.9 °F 19.8 °F 22.3 °F 76% 30.18 in 7.0 mi SE 10.4 mph - N/A   Clear
12:35 PM 30.2 °F 20.2 °F 23.9 °F 77% 30.17 in 7.0 mi SSE 12.7 mph - N/A   Clear
12:55 PM 30.9 °F 22.8 °F 24.8 °F 78% 30.17 in 7.0 mi SSE 9.2 mph - N/A   Clear
1:15 PM 31.5 °F 24.9 °F 25.5 °F 79% 30.17 in 7.0 mi SSE 6.9 mph - N/A   Mostly Cloudy
1:35 PM 32.0 °F 24.8 °F 25.9 °F 78% 30.16 in 7.0 mi SSE 8.1 mph - N/A   Mostly Cloudy
1:55 PM 32.5 °F 25.5 °F 26.8 °F 79% 30.15 in 10.0 mi SSE 8.1 mph - N/A   Mostly Cloudy
2:15 PM 32.9 °F 25.3 °F 26.8 °F 78% 30.14 in 7.0 mi SSE 9.2 mph - N/A   Mostly Cloudy
2:35 PM 32.9 °F 25.3 °F 27.1 °F 79% 30.14 in 10.0 mi South 9.2 mph - N/A   Mostly Cloudy
2:55 PM 34.0 °F 26.6 °F 28.2 °F 79% 30.15 in 10.0 mi South 9.2 mph - N/A   Mostly Cloudy
3:15 PM 33.8 °F 27.0 °F 28.2 °F 80% 30.14 in 10.0 mi SSE 8.1 mph - N/A   Scattered Clouds
3:35 PM 35.1 °F 30.1 °F 29.1 °F 79% 30.14 in 7.0 mi SSE 5.8 mph - N/A   Scattered Clouds
3:55 PM 33.3 °F 27.9 °F 28.2 °F 82% 30.14 in 7.0 mi SSE 5.8 mph - N/A   Scattered Clouds
4:15 PM 33.3 °F 27.9 °F 28.6 °F 83% 30.13 in 7.0 mi SE 5.8 mph - N/A   Clear
4:35 PM 33.8 °F 28.6 °F 28.4 °F 81% 30.12 in 10.0 mi ESE 5.8 mph - N/A   Clear
4:55 PM 33.3 °F 26.4 °F 29.1 °F 85% 30.11 in 7.0 mi SE 8.1 mph - N/A   Clear
5:15 PM 33.3 °F 26.4 °F 28.9 °F 84% 30.12 in 7.0 mi SE 8.1 mph - N/A   Clear
5:35 PM 33.3 °F 25.1 °F 29.1 °F 85% 30.11 in 10.0 mi SE 10.4 mph - N/A   Scattered Clouds
5:55 PM 33.1 °F 24.9 °F 29.3 °F 86% 30.09 in 10.0 mi SE 10.4 mph - N/A   Scattered Clouds
6:15 PM 33.1 °F 25.5 °F 29.3 °F 86% 30.09 in 10.0 mi SE 9.2 mph - N/A   Scattered Clouds
6:35 PM 33.3 °F 24.6 °F 29.3 °F 85% 30.09 in 10.0 mi SE 11.5 mph - N/A   Mostly Cloudy
6:55 PM 33.1 °F 24.4 °F 29.3 °F 86% 30.09 in 10.0 mi SE 11.5 mph - N/A   Mostly Cloudy
7:15 PM 32.9 °F 25.3 °F 29.5 °F 87% 30.09 in 10.0 mi SE 9.2 mph - N/A   Scattered Clouds
7:35 PM 32.9 °F 24.7 °F 29.3 °F 87% 30.12 in 7.0 mi SSE 10.4 mph - N/A   Scattered Clouds
7:55 PM 32.9 °F 24.7 °F 29.3 °F 87% 30.11 in 7.0 mi SSE 10.4 mph - N/A   Clear
8:15 PM 32.9 °F 24.1 °F 29.3 °F 87% 30.09 in 7.0 mi SE 11.5 mph - N/A   Clear
8:35 PM 32.9 °F 24.7 °F 29.5 °F 87% 30.09 in 7.0 mi SE 10.4 mph - N/A   Mostly Cloudy
8:55 PM 32.7 °F 24.5 °F 29.3 °F 87% 30.09 in 7.0 mi SE 10.4 mph - N/A   Scattered Clouds
9:15 PM 32.5 °F 22.7 °F 29.3 °F 88% 30.09 in 7.0 mi SSE 13.8 mph - N/A   Scattered Clouds
9:35 PM 32.5 °F 22.3 °F 29.3 °F 88% 30.09 in 7.0 mi SE 15.0 mph - N/A   Scattered Clouds
9:55 PM 32.9 °F 21.6 °F 29.3 °F 87% 30.08 in 7.0 mi SSE 18.4 mph - N/A   Mostly Cloudy
10:15 PM 32.9 °F 20.7 °F 29.3 °F 87% 30.07 in 7.0 mi SSE 21.9 mph 27.6 mph N/A   Scattered Clouds
10:35 PM 32.9 °F 22.0 °F 29.1 °F 86% 30.07 in 7.0 mi SSE 17.3 mph 25.3 mph N/A   Scattered Clouds
10:55 PM 32.5 °F 22.3 °F 29.1 °F 87% 30.07 in 7.0 mi SSE 15.0 mph 20.7 mph N/A   Clear
11:15 PM 32.5 °F 24.2 °F 29.1 °F 87% 30.07 in 7.0 mi SE 10.4 mph - N/A   Clear
11:35 PM 32.0 °F 23.0 °F 28.8 °F 88% 30.07 in 7.0 mi SE 11.5 mph - N/A   Clear
11:55 PM 31.8 °F 22.3 °F 28.2 °F 87% 30.07 in 7.0 mi SE 12.7 mph - N/A   Clear